TimeMST,TemperatureF,Dew PointF,Humidity,Sea Level PressureIn,VisibilityMPH,Wind Direction,Wind SpeedMPH,Gust SpeedMPH,PrecipitationIn,Events,Conditions,WindDirDegrees,DateUTC
12:15 AM,21.2,8.6,58,-9999,10.0,WSW,10.4,-,N/A,,Clear,240,2012-11-27 07:15:00
12:35 AM,21.2,10.4,63,-9999,10.0,WSW,10.4,-,N/A,,Clear,250,2012-11-27 07:35:00
12:55 AM,21.2,10.4,63,-9999,10.0,WSW,11.5,-,N/A,,Clear,250,2012-11-27 07:55:00
1:15 AM,23.0,10.4,59,-9999,10.0,WSW,16.1,-,N/A,,Clear,240,2012-11-27 08:15:00
1:35 AM,21.2,10.4,63,-9999,10.0,SW,12.7,-,N/A,,Clear,230,2012-11-27 08:35:00
1:55 AM,21.2,10.4,63,-9999,10.0,SW,12.7,-,N/A,,Clear,230,2012-11-27 08:55:00
2:15 AM,21.2,12.2,68,-9999,10.0,WSW,12.7,-,N/A,,Clear,240,2012-11-27 09:15:00
2:35 AM,21.2,12.2,68,-9999,10.0,SW,8.1,-,N/A,,Clear,230,2012-11-27 09:35:00
3:35 AM,21.2,10.4,63,-9999,10.0,South,8.1,-,N/A,,Clear,170,2012-11-27 10:35:00
4:15 AM,21.2,10.4,63,-9999,10.0,South,4.6,-,N/A,,Clear,190,2012-11-27 11:15:00
4:35 AM,21.2,10.4,63,-9999,10.0,SW,6.9,-,N/A,,Clear,230,2012-11-27 11:35:00
5:15 AM,21.2,10.4,63,-9999,10.0,SW,11.5,18.4,N/A,,Clear,220,2012-11-27 12:15:00
5:35 AM,19.4,10.4,68,-9999,10.0,SW,11.5,17.3,N/A,,Clear,220,2012-11-27 12:35:00
5:55 AM,21.2,10.4,63,-9999,10.0,SW,9.2,-,N/A,,Clear,220,2012-11-27 12:55:00
6:15 AM,19.4,10.4,68,-9999,10.0,SSW,6.9,-,N/A,,Clear,210,2012-11-27 13:15:00
6:35 AM,19.4,10.4,68,-9999,10.0,SSW,9.2,-,N/A,,Clear,210,2012-11-27 13:35:00
6:55 AM,21.2,10.4,63,-9999,10.0,SW,11.5,-,N/A,,Clear,220,2012-11-27 13:55:00
7:15 AM,21.2,12.2,68,-9999,10.0,SW,10.4,17.3,N/A,,Clear,220,2012-11-27 14:15:00
7:35 AM,21.2,10.4,63,-9999,10.0,SW,8.1,-,N/A,,Clear,230,2012-11-27 14:35:00
7:55 AM,21.2,12.2,68,-9999,10.0,SW,10.4,-,N/A,,Clear,230,2012-11-27 14:55:00
8:15 AM,21.2,12.2,68,-9999,10.0,WSW,12.7,-,N/A,,Clear,240,2012-11-27 15:15:00
8:35 AM,21.2,14.0,74,-9999,10.0,SW,16.1,-,N/A,,Clear,230,2012-11-27 15:35:00
8:55 AM,21.2,14.0,74,-9999,10.0,WSW,18.4,25.3,N/A,,Clear,240,2012-11-27 15:55:00
9:15 AM,21.2,12.2,68,-9999,10.0,WSW,16.1,24.2,N/A,,Clear,240,2012-11-27 16:15:00
9:35 AM,21.2,12.2,68,-9999,10.0,WSW,13.8,24.2,N/A,,Clear,250,2012-11-27 16:35:00
9:55 AM,23.0,12.2,63,-9999,10.0,West,8.1,-,N/A,,Clear,280,2012-11-27 16:55:00
10:15 AM,26.6,10.4,51,-9999,10.0,WSW,15.0,-,N/A,,Clear,250,2012-11-27 17:15:00
10:35 AM,26.6,12.2,55,-9999,10.0,WSW,15.0,-,N/A,,Clear,240,2012-11-27 17:35:00
10:55 AM,28.4,12.2,51,-9999,10.0,WSW,12.7,-,N/A,,Clear,240,2012-11-27 17:55:00
11:15 AM,30.2,12.2,47,-9999,10.0,WSW,16.1,20.7,N/A,,Clear,250,2012-11-27 18:15:00
11:35 AM,28.4,14.0,55,-9999,10.0,WSW,20.7,-,N/A,,Clear,250,2012-11-27 18:35:00
11:55 AM,30.2,14.0,51,-9999,10.0,WSW,20.7,-,N/A,,Clear,250,2012-11-27 18:55:00
12:15 PM,30.2,15.8,55,-9999,10.0,WSW,18.4,-,N/A,,Clear,240,2012-11-27 19:15:00
12:35 PM,32.0,17.6,55,-9999,10.0,WSW,18.4,-,N/A,,Clear,250,2012-11-27 19:35:00
12:55 PM,32.0,17.6,55,-9999,10.0,WSW,15.0,-,N/A,,Clear,240,2012-11-27 19:55:00
1:15 PM,32.0,17.6,55,30.12,10.0,WSW,16.1,-,N/A,,Clear,240,2012-11-27 20:15:00
1:35 PM,33.8,15.8,48,30.11,10.0,WSW,20.7,24.2,N/A,,Clear,250,2012-11-27 20:35:00
1:55 PM,35.6,17.6,48,30.12,10.0,WSW,21.9,25.3,N/A,,Clear,250,2012-11-27 20:55:00
2:15 PM,37.4,15.8,41,30.12,10.0,WSW,19.6,-,N/A,,Clear,240,2012-11-27 21:15:00
2:35 PM,35.6,15.8,44,30.13,10.0,WSW,17.3,23.0,N/A,,Clear,250,2012-11-27 21:35:00
2:55 PM,35.6,17.6,48,30.14,10.0,WSW,15.0,-,N/A,,Clear,250,2012-11-27 21:55:00
3:15 PM,35.6,17.6,48,30.13,10.0,WSW,15.0,-,N/A,,Clear,240,2012-11-27 22:15:00
3:35 PM,35.6,17.6,48,30.14,10.0,WSW,11.5,20.7,N/A,,Clear,240,2012-11-27 22:35:00
3:55 PM,35.6,17.6,48,30.14,10.0,WSW,9.2,-,N/A,,Clear,250,2012-11-27 22:55:00
4:15 PM,35.6,17.6,48,30.14,10.0,SW,6.9,-,N/A,,Clear,230,2012-11-27 23:15:00
4:35 PM,33.8,17.6,52,30.13,10.0,SW,10.4,-,N/A,,Clear,220,2012-11-27 23:35:00
4:55 PM,32.0,17.6,55,30.14,10.0,WSW,12.7,-,N/A,,Clear,240,2012-11-27 23:55:00
5:15 PM,32.0,17.6,55,30.14,10.0,WSW,11.5,-,N/A,,Clear,250,2012-11-28 00:15:00
5:35 PM,32.0,14.0,48,30.14,10.0,WSW,11.5,-,N/A,,Clear,250,2012-11-28 00:35:00
5:55 PM,33.8,8.6,35,30.14,10.0,WSW,12.7,-,N/A,,Clear,250,2012-11-28 00:55:00
6:15 PM,33.8,8.6,35,30.14,10.0,WSW,11.5,-,N/A,,Clear,240,2012-11-28 01:15:00
6:35 PM,33.8,8.6,35,30.15,10.0,WSW,10.4,-,N/A,,Clear,250,2012-11-28 01:35:00
7:15 PM,33.8,5.0,30,30.16,10.0,WSW,12.7,-,N/A,,Clear,250,2012-11-28 02:15:00
7:35 PM,33.8,5.0,30,30.16,10.0,WSW,16.1,-,N/A,,Clear,250,2012-11-28 02:35:00
8:15 PM,33.8,8.6,35,30.16,10.0,WSW,12.7,-,N/A,,Clear,250,2012-11-28 03:15:00
8:35 PM,32.0,8.6,38,30.15,10.0,WSW,13.8,-,N/A,,Clear,240,2012-11-28 03:35:00
8:55 PM,33.8,6.8,32,30.14,10.0,WSW,18.4,-,N/A,,Clear,250,2012-11-28 03:55:00
9:15 PM,35.6,8.6,33,30.13,10.0,WSW,20.7,25.3,N/A,,Clear,250,2012-11-28 04:15:00
9:35 PM,35.6,8.6,33,30.13,10.0,WSW,19.6,25.3,N/A,,Clear,250,2012-11-28 04:35:00
9:55 PM,33.8,10.4,38,30.13,10.0,WSW,17.3,23.0,N/A,,Clear,250,2012-11-28 04:55:00
10:15 PM,33.8,10.4,38,30.14,10.0,WSW,12.7,-,N/A,,Clear,250,2012-11-28 05:15:00
10:35 PM,35.6,8.6,33,30.14,10.0,WSW,11.5,17.3,N/A,,Clear,250,2012-11-28 05:35:00
10:55 PM,35.6,6.8,30,30.14,10.0,West,13.8,18.4,N/A,,Clear,260,2012-11-28 05:55:00
11:15 PM,35.6,5.0,28,30.14,10.0,West,10.4,24.2,N/A,,Clear,260,2012-11-28 06:15:00
11:35 PM,35.6,5.0,28,30.15,10.0,West,8.1,-,N/A,,Clear,260,2012-11-28 06:35:00
11:55 PM,35.6,6.8,30,30.15,10.0,WSW,4.6,-,N/A,,Clear,240,2012-11-28 06:55:00